Weather History for Ashland, WI

Change the Weather History Date:

Saturday, January 19, 2013

  Actual Average Record
Temperature  
Mean Temperature 18 °F -  
Max Temperature 32 °F 24 °F 42 °F (1981)
Min Temperature 3 °F 1 °F -27 °F (1984)
Degree Days  
Heating Degree Days 48    
Moisture  
Dew Point 9 °F    
Average Humidity 76    
Maximum Humidity 89    
Minimum Humidity 61    
Precipitation  
Precipitation 0.00 in - - ()
Sea Level Pressure  
Sea Level Pressure 29.79 in    
Wind  
Wind Speed 11 mph (WNW)    
Max Wind Speed 25 mph    
Max Gust Speed 39 mph    
Visibility 5 miles    
Events Snow    
Averages and records for this station are not official NWS values.
T = Trace of Precipitation, MM = Missing Value Source: NWS Daily Summary

Daily Weather History Graph

Daily Weather History Graph

Search for Another Location

Airport:

Trip Planner

Search our weather history database for the weather conditions in past years. The results will help you decide how hot, cold, wet, or windy it might be!

Date:

Astronomy

Jan. 19, 2013 Rise Set
Actual Time 7:40 AM CST 4:49 PM CST
Civil Twilight 7:06 AM CST 5:22 PM CST
Nautical Twilight 6:29 AM CST 5:59 PM CST
Astronomical Twilight 5:53 AM CST 6:35 PM CST
Moon 11:19 AM CST (1/19) 1:09 AM CST (1/19)
Length of Visible Light 10h 15m
Length of Day
9h 08m
First Quarter, 57% of the Moon is Illuminated
Jan 19
First Quarter
Jan 26
Full
Feb 3
Last Quarter
Feb 10
New
Feb 17
First Quarter

Hourly Weather History & Observations

Time (CST) Temp. Windchill Dew Point Humidity Pressure Visibility Wind Dir Wind Speed Gust Speed Precip Events Conditions
12:53 AM 19.0 °F 10.0 °F 15.1 °F 85% 29.84 in 10.0 mi SW 6.9 mph - N/A   Overcast
1:53 AM 19.0 °F 12.3 °F 14.0 °F 81% 29.84 in 10.0 mi SW 4.6 mph - N/A   Overcast
2:33 AM 19.4 °F - 15.8 °F 86% 29.78 in 10.0 mi Calm Calm - N/A   Overcast
2:53 AM 19.9 °F - 16.0 °F 85% 29.82 in 10.0 mi Calm Calm - N/A   Overcast
3:53 AM 19.9 °F - 16.0 °F 85% 29.80 in 10.0 mi Calm Calm - N/A   Overcast
4:46 AM 19.4 °F - 15.8 °F 86% 29.72 in 6.0 mi Calm Calm - 0.00 in Snow Light Snow
4:53 AM 19.9 °F - 17.1 °F 89% 29.77 in 7.0 mi Calm Calm - 0.00 in Snow Light Snow
5:21 AM 19.4 °F - 15.8 °F 86% 29.71 in 10.0 mi Calm Calm - 0.00 in   Overcast
6:53 AM 21.0 °F 14.6 °F 17.1 °F 85% 29.74 in 10.0 mi WNW 4.6 mph - N/A   Overcast
7:53 AM 19.9 °F 13.4 °F 17.1 °F 89% 29.71 in 8.0 mi South 4.6 mph - N/A   Overcast
8:53 AM 23.0 °F 17.0 °F 19.0 °F 85% 29.69 in 8.0 mi South 4.6 mph - N/A   Overcast
9:31 AM 24.8 °F 19.1 °F 19.4 °F 80% 29.63 in 7.0 mi SSW 4.6 mph - N/A   Scattered Clouds
9:53 AM 26.1 °F 18.4 °F 21.0 °F 81% 29.66 in 7.0 mi SSW 6.9 mph - N/A   Clear
10:53 AM 28.9 °F 21.1 °F 24.1 °F 82% 29.63 in 8.0 mi SW 8.1 mph - N/A   Mostly Cloudy
11:15 AM 30.2 °F 21.9 °F 24.8 °F 80% 29.57 in 8.0 mi WSW 9.2 mph - N/A   Overcast
11:53 AM 32.0 °F 22.1 °F 26.1 °F 79% 29.57 in 9.0 mi WSW 13.8 mph 21.9 mph N/A   Overcast
12:24 PM 32.0 °F 21.2 °F 26.6 °F 80% 29.55 in 10.0 mi West 16.1 mph 24.2 mph N/A   Mostly Cloudy
12:53 PM 32.0 °F 22.1 °F 25.0 °F 75% 29.59 in 10.0 mi West 13.8 mph 25.3 mph N/A   Overcast
1:53 PM 32.0 °F 21.2 °F 24.1 °F 73% 29.58 in 10.0 mi West 16.1 mph 31.1 mph N/A   Overcast
2:53 PM 32.0 °F 22.5 °F 23.0 °F 69% 29.58 in 10.0 mi West 12.7 mph 24.2 mph N/A   Overcast
3:27 PM 26.6 °F 13.4 °F 19.4 °F 74% 29.57 in 1.8 mi NW 18.4 mph 34.5 mph 0.00 in Snow Light Snow
3:53 PM 24.1 °F 9.0 °F 18.0 °F 77% 29.65 in 0.8 mi WNW 21.9 mph 31.1 mph 0.00 in Snow Light Snow
4:17 PM 21.2 °F 6.0 °F 14.0 °F 74% 29.62 in 2.0 mi NW 19.6 mph 32.2 mph 0.00 in Snow Light Snow
4:25 PM 21.2 °F 4.2 °F 12.2 °F 68% 29.62 in 3.0 mi WNW 25.3 mph 36.8 mph 0.00 in Snow Light Snow
4:45 PM 19.4 °F 2.5 °F 10.4 °F 68% 29.65 in 1.8 mi NW 23.0 mph 35.7 mph 0.00 in Snow Light Snow
4:53 PM 18.0 °F -0.2 °F 9.0 °F 68% 29.70 in 3.0 mi WNW 25.3 mph 39.1 mph 0.00 in Snow Light Snow
5:16 PM 17.6 °F 0.1 °F 8.6 °F 68% 29.69 in 2.5 mi WNW 23.0 mph 38.0 mph 0.00 in Snow Light Snow
5:25 PM 17.6 °F 0.5 °F 6.8 °F 63% 29.72 in 4.0 mi WNW 21.9 mph 39.1 mph 0.00 in   Haze
5:53 PM 15.1 °F -2.5 °F 3.9 °F 61% 29.80 in 10.0 mi WNW 20.7 mph 32.2 mph 0.00 in   Overcast
6:17 PM 12.2 °F -5.8 °F 5.0 °F 73% 29.77 in 2.0 mi WNW 19.6 mph 36.8 mph 0.00 in Snow Light Snow
6:24 PM 12.2 °F -7.1 °F 3.2 °F 67% 29.78 in 3.0 mi NW 23.0 mph 34.5 mph 0.00 in Snow Light Snow
6:34 PM 12.2 °F -5.8 °F 3.2 °F 67% 29.79 in 2.0 mi WNW 19.6 mph 33.4 mph 0.00 in Snow Light Snow
6:53 PM 10.9 °F -9.2 °F 3.0 °F 70% 29.86 in 1.8 mi NW 24.2 mph 32.2 mph 0.00 in Snow Light Snow
7:38 PM 8.6 °F -9.5 °F 3.2 °F 79% 29.86 in 0.5 mi NW 17.3 mph 29.9 mph 0.00 in Snow Snow
7:49 PM 8.6 °F -11.0 °F 1.4 °F 73% 29.86 in 1.0 mi NW 20.7 mph 31.1 mph 0.00 in Snow Light Snow
7:53 PM 8.1 °F -9.6 °F -0.0 °F 70% 29.92 in 2.0 mi NW 16.1 mph 31.1 mph 0.00 in Snow Light Snow
8:01 PM 8.6 °F -11.0 °F -0.4 °F 67% 29.87 in 4.0 mi NW 20.7 mph 32.2 mph 0.00 in   Haze
8:11 PM 6.8 °F -14.7 °F -0.4 °F 72% 29.88 in 2.0 mi NW 24.2 mph 35.7 mph 0.00 in Snow Light Snow
8:24 PM 6.8 °F -11.3 °F -0.4 °F 72% 29.90 in 4.0 mi NW 16.1 mph 28.8 mph 0.00 in   Haze
8:45 PM 6.8 °F -10.7 °F -2.2 °F 67% 29.91 in 6.0 mi NW 15.0 mph 28.8 mph 0.00 in   Haze
8:53 PM 6.1 °F -9.5 °F -0.9 °F 73% 29.98 in 2.5 mi NW 11.5 mph 26.5 mph 0.00 in Snow Light Snow
9:01 PM 6.8 °F -12.4 °F -0.4 °F 72% 29.93 in 1.2 mi NW 18.4 mph 24.2 mph 0.00 in Snow Light Snow
9:51 PM 5.0 °F -11.6 °F -0.4 °F 78% 29.97 in 2.0 mi NW 12.7 mph 25.3 mph 0.00 in Snow Light Snow
9:53 PM 5.0 °F -10.8 °F -0.9 °F 76% 30.03 in 2.0 mi NW 11.5 mph 25.3 mph 0.00 in Snow Light Snow
10:03 PM 5.0 °F -14.7 °F -0.4 °F 78% 29.99 in 1.8 mi NW 18.4 mph 26.5 mph 0.00 in Snow Light Snow
10:15 PM 5.0 °F -11.6 °F -0.4 °F 78% 29.99 in 2.0 mi NW 12.7 mph 24.2 mph 0.00 in Snow Light Snow
10:23 PM 5.0 °F -14.2 °F -0.4 °F 78% 30.00 in 1.8 mi WNW 17.3 mph 24.2 mph 0.00 in Snow Light Snow
10:43 PM 5.0 °F -13.6 °F -2.2 °F 72% 30.01 in 2.0 mi NW 16.1 mph 27.6 mph 0.00 in Snow Light Snow
10:50 PM 5.0 °F -14.7 °F -2.2 °F 72% 30.01 in 2.5 mi NW 18.4 mph 25.3 mph 0.00 in Snow Light Snow
11:01 PM 3.2 °F -15.9 °F -2.2 °F 78% 30.03 in 4.0 mi NW 16.1 mph 27.6 mph 0.00 in Snow Light Snow
11:26 PM 3.2 °F -15.3 °F -4.0 °F 72% 30.05 in 9.0 mi NW 15.0 mph 24.2 mph 0.00 in   Overcast
11:53 PM 3.0 °F -17.8 °F -5.1 °F 69% 30.10 in 8.0 mi NW 19.6 mph 27.6 mph 0.00 in   Overcast